Regional Weather Roundup
Issued by NWS

Home | Current Version | Previous Version | Graphics & Text | Print | Product List | Glossary On
Versions: 1 2 3 4 5 6 7 8 9 10 11 12 13 14 15 16 17 18 19 20 21 22 23 24 25 26 27 28 29 30 31 32 33 34 35 36 37 38 39 40 41 42 43 44 45 46 47 48 49 50
000
ASUS43 KOAX 300110
RWRNE

WEATHER ROUNDUP FOR NEBRASKA
NATIONAL WEATHER SERVICE OMAHA NE
800 PM CDT MON SEP 29 2014

NOTES: SATELLITE DATA IS BEING USED TO AUGMENT CLOUD COVER ABOVE
       12000 FEET.
       "FAIR" INDICATES FEW OR NO CLOUDS BELOW 12,000 FEET WITH NO
       SIGNIFICANT WEATHER AND/OR OBSTRUCTIONS TO VISIBILITY.

  * THESE STATIONS DO NOT REPORT WEATHER SUCH AS RAIN...SNOW OR FOG.

NEZ001>004-019>022-054>056-300200-
NEBRASKA PANHANDLE

CITY           SKY/WX    TMP DP  RH WIND       PRES   REMARKS
SCOTTSBLUFF    RAIN      59  57  93 N15G22    29.83R FOG
ALLIANCE       TSTM      58  56  93 E12       29.84  FOG
CHADRON        FOG       53  53 100 NE9       29.88S VSB 3/4
KIMBALL        CLOUDY    57  56  97 NW15G21   29.81S
SIDNEY         TSTM      58  57  97 W10       29.76R
$$

NEZ057>060-069>072-079>082-300200-
SOUTHWEST NEBRASKA

CITY           SKY/WX    TMP DP  RH WIND       PRES   REMARKS
NORTH PLATTE   CLOUDY    75  52  44 SE20G28   29.80F
IMPERIAL       MOCLDY    76  51  41 SE28G35   29.75F
LEXINGTON      CLOUDY    74  55  51 SE15      29.85F
MCCOOK         CLEAR     76  52  43 SE17G26   29.81F
OGALLALA       CLOUDY    74  54  48 SE20G29   29.74F
$$

NEZ005>010-023>029-035>040-094-300200-
NORTH CENTRAL NEBRASKA

CITY           SKY/WX    TMP DP  RH WIND       PRES   REMARKS
VALENTINE      CLOUDY    65  60  84 NE12      29.86F
AINSWORTH      MOCLDY    70  54  57 SE9       29.87F
BROKEN BOW     PTCLDY    72  54  53 SE13G22   29.86F
O`NEILL        CLEAR     71  57  61 SE8       29.90F
ORD            CLEAR     70  53  54 SE7       29.87F
THEDFORD       CLOUDY    75  55  49 SE17G28   29.84F
$$

NEZ041-046>049-061>064-073>077-083>087-300200-
SOUTH CENTRAL NEBRASKA

CITY           SKY/WX    TMP DP  RH WIND       PRES   REMARKS
GRAND ISLAND   CLEAR     72  53  51 SE8       29.90F
AURORA         CLEAR     66  54  65 E7        29.91F
HASTINGS       CLEAR     72  50  45 SE8       29.90F
HEBRON         CLEAR     68  53  58 SE3       29.91F
HOLDREGE       PTCLDY    71  53  52 SE12      29.87F
KEARNEY *      CLEAR     72  52  49 E13       29.89F
YORK           CLEAR     72  55  56 SE10      29.92S
$$

NEZ011>018-030>034-042>045-300200-
NORTHEAST NEBRASKA

CITY           SKY/WX    TMP DP  RH WIND       PRES   REMARKS
NORFOLK        CLEAR     69  57  65 SE7       29.92S
ALBION         PTCLDY    72  55  56 SE8       29.91F
BLAIR          CLEAR     73  59  63 E6        29.94S
COLUMBUS *     CLEAR     72  57  60 E7        29.93S
FREMONT        CLEAR     74  58  56 E6        29.93S
TEKAMAH        CLEAR     73  62  68 E7        29.93S
WAYNE          CLEAR     70  64  79 E12       29.94S
$$

NEZ050>053-065>068-078-088>093-300200-
SOUTHEAST NEBRASKA

CITY           SKY/WX    TMP DP  RH WIND       PRES   REMARKS
LINCOLN        CLEAR     75  55  49 E8        29.93S
OMAHA EPPLEY   CLEAR     73  60  63 E8        29.93F
BEATRICE       CLEAR     72  55  54 SE5       29.93S
FALLS CITY     CLEAR     72  57  59 SE5       29.93F
NEBRASKA CITY  CLEAR     75  47  37 SE6       29.94S
PLATTSMOUTH    CLEAR     72  55  54 SE3       29.94S
$$

NEZ044-045-051>053-067-300200-
OMAHA AREA

CITY           SKY/WX    TMP DP  RH WIND       PRES   REMARKS
OMAHA EPPLEY   CLEAR     73  60  63 E8        29.93F
BLAIR          CLEAR     73  59  63 E6        29.94S
FREMONT        CLEAR     74  58  56 E6        29.93S
MILLARD        CLEAR     71  61  71 CALM      29.92F
OFFUTT AFB     CLEAR     66  65  99 E3        29.93S
PLATTSMOUTH    CLEAR     72  55  54 SE3       29.94S
WAHOO          FAIR      70  57  63 E6        29.93S
$$


USA.gov is the U.S. government's official web portal to all federal, state and local government web resources and services.